Tracking 28790 objects as of 19-Apr-2024
HD Live streaming from Space Station
objects crossing your sky now

STARLINK-1450

Track STARLINK-1450 now!
10-day predictions
STARLINK-1450 is classified as:


NORAD ID: 45667
Int'l Code: 2020-035L
Perigee: 389.8 km
Apogee: 391.2 km
Inclination: 53.1 °
Period: 92.2 minutes
Semi major axis: 6761 km
RCS: Unknown
Launch date: June 4, 2020
Source: United States (US)
Launch site: AIR FORCE EASTERN TEST RANGE (AFETR)
Your satellite tracking list
Your tracking list is empty




NASA's NSSDC Master Catalog

Two Line Element Set (TLE):
1 45667U 20035L   24110.58335648  .00703808  00000-0  73965-2 0  9996
2 45667  53.0509 272.6177 0001043  70.9273 333.3101 15.61495362214609
Source of the keplerian elements: AFSPC